User: anonymous   Login
Location: ??????
(55.4348°N, 39.2112°E)
Time: 04:16:26
(UTC+00:00)
Language:

Cosmos 2056 Rocket - Orbit

View from above orbital plane
View from above orbital plane
View from above satellite
View from above satellite

Ground track
Ground track

The orbit data is extracted from the following two-line orbital elements,

1 20433U 90004B   24174.57638692  .00000434  00000-0  15458-3 0  9996
2 20433  74.0369 330.5781 0040722 195.9279 233.3717 14.36802125803062
Epoch (UTC): 22 June 2024 13:49:59
Eccentricity: 0.0040722
inclination: 74.0369°
perigee height: 740 km
apogee height: 798 km
right ascension of ascending node: 330.5781°
argument of perigee: 195.9279°
revolutions per day: 14.36802125
mean anomaly at epoch: 233.3717°
orbit number at epoch: 80306

The dashed part of the orbit path shows where the satellite is in the earth's shadow,  

DLR